User: anonymous   Login
Location: Coleto Creek Park and Reservoir
(28.7196°N, 97.1740°W)
Time: 20:25:11
(UTC-05:00)
Language:

Hubble Space Telescope - Orbit

View from above orbital plane
View from above orbital plane
View from above satellite
View from above satellite

Ground track
Ground track

The orbit data is extracted from the following two-line orbital elements,

1 20580U 90037B   15090.84339791  .00004403  00000-0  27463-3 0  9999
2 20580 028.4699 304.0419 0003224 122.0358 347.2699 15.07089760168129
Epoch (UTC): 31 March 2015 20:14:29
Eccentricity: 0.0003224
inclination: 28.4699°
perigee height: 543 km
apogee height: 547 km
right ascension of ascending node: 304.0419°
argument of perigee: 122.0358°
revolutions per day: 15.07089760
mean anomaly at epoch: 347.2699°
orbit number at epoch: 16812

The dashed part of the orbit path shows where the satellite is in the earth's shadow,  

DLR